This is the latest recevied weather packets stored in our database for station/object K8GLX. If no packets are shown the sender has not sent any weather packets the latest 10 day(s).
| Time | Temp. | Humidity | Pressure | Rain* | Wind** | Luminosity | Snow |
|---|---|---|---|---|---|---|---|
| 1777907829 | 18.89° C | 46% | 1006.5 hPa | 0 mm | - | 673 W/m² | - |
| 1777907535 | 18.89° C | 47% | 1006.7 hPa | 0 mm | - | 665 W/m² | - |
| 1777907229 | 18.89° C | 47% | 1006.7 hPa | 0 mm | - | 656 W/m² | - |
| 1777906934 | 18.33° C | 48% | 1006.9 hPa | 0 mm | - | 646 W/m² | - |
| 1777906628 | 18.33° C | 48% | 1006.8 hPa | 0 mm | - | 637 W/m² | - |
| 1777906461 | 17.78° C | 49% | 1006.7 hPa | 0 mm | - | 627 W/m² | - |
| 1777906029 | 17.78° C | 49% | 1006.7 hPa | 0 mm | - | 616 W/m² | - |
| 1777905863 | 17.78° C | 49% | 1006.8 hPa | 0 mm | - | 607 W/m² | - |
| 1777905429 | 18.33° C | 49% | 1006.7 hPa | 0 mm | - | 597 W/m² | - |
| 1777905134 | 17.78° C | 50% | 1006.8 hPa | 0 mm | - | 587 W/m² | - |
| 1777904829 | 17.22° C | 49% | 1006.8 hPa | 0 mm | - | 575 W/m² | - |
| 1777904535 | 17.22° C | 50% | 1007 hPa | 0 mm | - | 565 W/m² | - |
| 1777904229 | 17.22° C | 50% | 1007 hPa | 0 mm | - | 552 W/m² | - |
| 1777903935 | 17.22° C | 50% | 1007.2 hPa | 0 mm | - | 538 W/m² | - |
| 1777903629 | 16.67° C | 50% | 1007 hPa | 0 mm | - | 525 W/m² | - |
| 1777903334 | 16.67° C | 50% | 1007.1 hPa | 0 mm | - | 508 W/m² | - |
| 1777903028 | 16.67° C | 51% | 1007.1 hPa | 0 mm | - | 492 W/m² | - |
| 1777902734 | 16.67° C | 51% | 1007.2 hPa | 0 mm | - | 475 W/m² | - |
| 1777902428 | 16.67° C | 51% | 1007.4 hPa | 0 mm | - | 460 W/m² | - |
| 1777902136 | 16.11° C | 51% | 1007.5 hPa | 0 mm | - | 441 W/m² | - |
| 1777901828 | 15.56° C | 52% | 1007.7 hPa | 0 mm | - | 426 W/m² | - |
| 1777901534 | 15.56° C | 52% | 1007.5 hPa | 0 mm | - | 408 W/m² | - |
| 1777901229 | 15° C | 53% | 1007.7 hPa | 0 mm | - | 381 W/m² | - |
| 1777900934 | 15.56° C | 52% | 1007.8 hPa | 0 mm | - | 379 W/m² | - |
| 1777900628 | 15.56° C | 52% | 1007.8 hPa | 0 mm | - | 368 W/m² | - |
* Rain latest hour (hover to see other rain measurements)
** Current wind speed in m/s (hover to see current wind gust speed)